LBT44D DTTJ-DTTA

Flight info

Callsign LBT44D
Flight time 0h 41m
Altitude 22000
Route BISKO1A BISKO A411 TUC
Aircraft A320/M-SDE3FGHIRWY/LB1

Departure

Time 2026-05-06 15:34
Airport Djerba Zarzis International Airport (DTTJ)

Arrival

Time 2026-05-06 16:15
Airport Tunis Carthage International Airport (DTTA)
Time Latitude Longitude Altitude Speed Heading
2026-05-06 14:56 33.87337 10.78017 24 ft 0 kts 179°
2026-05-06 15:25 33.87344 10.78017 23 ft 2 kts 179°
2026-05-06 15:25 33.87362 10.78017 27 ft 2 kts 179°
2026-05-06 15:25 33.87378 10.78018 26 ft 2 kts 193°
2026-05-06 15:25 33.87395 10.78023 27 ft 2 kts 228°
2026-05-06 15:26 33.87401 10.78040 27 ft 2 kts 262°
2026-05-06 15:26 33.87401 10.78041 27 ft 0 kts 262°
2026-05-06 15:28 33.87400 10.78028 26 ft 4 kts 262°
2026-05-06 15:28 33.87396 10.77969 23 ft 10 kts 268°
2026-05-06 15:28 33.87393 10.77861 23 ft 16 kts 268°
2026-05-06 15:29 33.87390 10.77722 22 ft 17 kts 268°
2026-05-06 15:29 33.87386 10.77587 22 ft 16 kts 268°
2026-05-06 15:29 33.87383 10.77461 22 ft 14 kts 268°
2026-05-06 15:29 33.87380 10.77352 22 ft 13 kts 270°
2026-05-06 15:30 33.87367 10.77252 21 ft 12 kts 261°
2026-05-06 15:30 33.87364 10.77157 21 ft 11 kts 268°
2026-05-06 15:30 33.87362 10.77065 21 ft 11 kts 269°
2026-05-06 15:30 33.87360 10.76971 21 ft 11 kts 269°
2026-05-06 15:31 33.87358 10.76877 21 ft 11 kts 269°
2026-05-06 15:31 33.87353 10.76724 20 ft 27 kts 268°
2026-05-06 15:31 33.87347 10.76477 19 ft 26 kts 268°
2026-05-06 15:32 33.87342 10.76106 18 ft 20 kts 285°
2026-05-06 15:32 33.87407 10.76050 20 ft 0 kts 357°
2026-05-06 15:32 33.87411 10.76050 19 ft 4 kts 358°
2026-05-06 15:33 33.87478 10.76060 18 ft 15 kts 28°
2026-05-06 15:33 33.87506 10.76195 19 ft 21 kts 91°
2026-05-06 15:33 33.87516 10.76581 20 ft 78 kts 88°
2026-05-06 15:33 33.87545 10.77476 22 ft 133 kts 89°
2026-05-06 15:34 33.87585 10.78732 279 ft 155 kts 86°
2026-05-06 15:34 33.87732 10.80012 962 ft 158 kts 72°
2026-05-06 15:34 33.88463 10.81077 1516 ft 183 kts 41°
2026-05-06 15:34 33.89761 10.81660 1793 ft 216 kts 13°
2026-05-06 15:35 33.91319 10.81815 2137 ft 232 kts
2026-05-06 15:35 33.92977 10.81896 2534 ft 247 kts 358°
2026-05-06 15:35 33.94614 10.81222 3121 ft 255 kts 327°
2026-05-06 15:35 33.96021 10.79952 3996 ft 250 kts 316°
2026-05-06 15:36 33.97328 10.78571 4810 ft 248 kts 314°
2026-05-06 15:36 33.98631 10.77211 5657 ft 246 kts 315°
2026-05-06 15:36 34.00097 10.75982 6076 ft 273 kts 331°
2026-05-06 15:36 34.02012 10.75441 6500 ft 295 kts 353°
2026-05-06 15:37 34.04088 10.75247 7193 ft 301 kts 353°
2026-05-06 15:37 34.06189 10.75045 8001 ft 304 kts 352°
2026-05-06 15:37 34.08309 10.74835 8790 ft 308 kts 351°
2026-05-06 15:37 34.10459 10.74620 9575 ft 311 kts 351°
2026-05-06 15:38 34.12648 10.74402 10079 ft 325 kts 351°
2026-05-06 15:38 34.14980 10.74165 10288 ft 348 kts 351°
2026-05-06 15:38 34.17430 10.73914 10582 ft 366 kts 352°
2026-05-06 15:38 34.19994 10.73659 11165 ft 373 kts 352°
2026-05-06 15:39 34.22595 10.73406 11817 ft 378 kts 352°
2026-05-06 15:39 34.25244 10.73153 12476 ft 383 kts 352°
2026-05-06 15:39 34.27915 10.72897 13125 ft 389 kts 352°
2026-05-06 15:39 34.30635 10.72638 13739 ft 394 kts 352°
2026-05-06 15:40 34.33385 10.72415 14370 ft 398 kts 352°
2026-05-06 15:40 34.36155 10.72221 15025 ft 400 kts 352°
2026-05-06 15:40 34.38954 10.72042 15705 ft 402 kts 352°
2026-05-06 15:40 34.41723 10.71866 16353 ft 404 kts 352°
2026-05-06 15:41 34.44536 10.71681 17007 ft 406 kts 351°
2026-05-06 15:41 34.47361 10.71484 17667 ft 407 kts 351°
2026-05-06 15:41 34.50198 10.71234 18273 ft 408 kts 349°
2026-05-06 15:41 34.53031 10.70934 18845 ft 409 kts 348°
2026-05-06 15:42 34.55858 10.70611 19403 ft 410 kts 348°
2026-05-06 15:42 34.58700 10.70280 19958 ft 411 kts 347°
2026-05-06 15:42 34.61549 10.69954 20512 ft 412 kts 347°
2026-05-06 15:42 34.64411 10.69638 21047 ft 414 kts 347°
2026-05-06 15:43 34.67283 10.69332 21558 ft 415 kts 347°
2026-05-06 15:43 34.70172 10.69030 21744 ft 415 kts 347°
2026-05-06 15:43 34.73103 10.68956 21787 ft 428 kts 355°
2026-05-06 15:43 34.76078 10.69151 21783 ft 429 kts 355°
2026-05-06 15:44 34.79058 10.69346 21792 ft 429 kts 355°
2026-05-06 15:44 34.82041 10.69541 21783 ft 429 kts 355°
2026-05-06 15:44 34.85016 10.69734 21782 ft 429 kts 355°
2026-05-06 15:44 34.88005 10.69925 21785 ft 429 kts 355°
2026-05-06 15:45 34.90986 10.70114 21786 ft 430 kts 355°
2026-05-06 15:45 34.93970 10.70306 21789 ft 430 kts 355°
2026-05-06 15:45 34.96953 10.70496 21791 ft 430 kts 355°
2026-05-06 15:45 34.99946 10.70671 21797 ft 430 kts 355°
2026-05-06 15:46 35.02931 10.70829 21828 ft 430 kts 355°
2026-05-06 15:46 35.05919 10.70980 21823 ft 430 kts 355°
2026-05-06 15:46 35.08909 10.71132 21815 ft 430 kts 355°
2026-05-06 15:46 35.11867 10.71284 21811 ft 430 kts 355°
2026-05-06 15:47 35.14861 10.71445 21807 ft 430 kts 355°
2026-05-06 15:47 35.17847 10.71608 21814 ft 430 kts 355°
2026-05-06 15:47 35.20847 10.71772 21813 ft 431 kts 355°
2026-05-06 15:47 35.23837 10.71933 21812 ft 431 kts 355°
2026-05-06 15:48 35.26843 10.72092 21811 ft 431 kts 355°
2026-05-06 15:48 35.29836 10.72248 21836 ft 431 kts 356°
2026-05-06 15:48 35.32840 10.72409 21829 ft 431 kts 356°
2026-05-06 15:48 35.35834 10.72575 21825 ft 432 kts 356°
2026-05-06 15:49 35.38844 10.72740 21826 ft 432 kts 356°
2026-05-06 15:49 35.41805 10.72902 21827 ft 432 kts 356°
2026-05-06 15:49 35.44808 10.73068 21830 ft 432 kts 356°
2026-05-06 15:49 35.47811 10.73236 21838 ft 432 kts 356°
2026-05-06 15:50 35.50809 10.73402 21842 ft 432 kts 356°
2026-05-06 15:50 35.53813 10.73574 21846 ft 432 kts 356°
2026-05-06 15:50 35.56820 10.73751 21849 ft 432 kts 356°
2026-05-06 15:50 35.59821 10.73925 21854 ft 432 kts 356°
2026-05-06 15:51 35.62827 10.74099 21857 ft 432 kts 356°
2026-05-06 15:51 35.65839 10.74270 21862 ft 432 kts 356°
2026-05-06 15:51 35.68848 10.74438 21864 ft 432 kts 356°
2026-05-06 15:51 35.71852 10.74605 21865 ft 432 kts 355°
2026-05-06 15:52 35.74832 10.74466 21865 ft 424 kts 346°
2026-05-06 15:52 35.77697 10.73751 21884 ft 417 kts 338°
2026-05-06 15:52 35.80415 10.72551 21862 ft 414 kts 333°
2026-05-06 15:52 35.83025 10.71325 21864 ft 399 kts 333°
2026-05-06 15:53 35.85566 10.70149 21864 ft 381 kts 333°
2026-05-06 15:53 35.87996 10.69027 21861 ft 365 kts 333°
2026-05-06 15:53 35.90337 10.67941 21861 ft 355 kts 333°
2026-05-06 15:53 35.92642 10.66861 21861 ft 352 kts 332°
2026-05-06 15:54 35.94923 10.65786 21862 ft 352 kts 332°
2026-05-06 15:54 35.97229 10.64699 21864 ft 351 kts 332°
2026-05-06 15:54 35.99483 10.63638 21867 ft 351 kts 332°
2026-05-06 15:54 36.01781 10.62557 21528 ft 356 kts 332°
2026-05-06 15:55 36.04102 10.61465 21054 ft 356 kts 333°
2026-05-06 15:55 36.06418 10.60380 20578 ft 356 kts 333°
2026-05-06 15:55 36.08727 10.59300 20152 ft 355 kts 332°
2026-05-06 15:55 36.11032 10.58225 19714 ft 354 kts 332°
2026-05-06 15:56 36.13335 10.57147 19296 ft 353 kts 332°
2026-05-06 15:56 36.15639 10.56062 18840 ft 354 kts 332°
2026-05-06 15:56 36.17926 10.54986 18565 ft 349 kts 332°
2026-05-06 15:56 36.20216 10.53907 18003 ft 353 kts 332°
2026-05-06 15:57 36.21727 10.53197 17889 ft 348 kts 332°
2026-05-06 15:57 36.23966 10.52147 17567 ft 344 kts 332°
2026-05-06 15:57 36.26202 10.51095 17190 ft 342 kts 332°
2026-05-06 15:57 36.28416 10.50048 16810 ft 341 kts 332°
2026-05-06 15:58 36.30627 10.48992 16425 ft 340 kts 332°
2026-05-06 15:58 36.32831 10.47926 16053 ft 340 kts 332°
2026-05-06 15:58 36.35031 10.46856 15692 ft 339 kts 332°
2026-05-06 15:58 36.37231 10.45784 15346 ft 338 kts 331°
2026-05-06 15:59 36.39309 10.44476 14994 ft 332 kts 321°
2026-05-06 15:59 36.41230 10.42911 14631 ft 330 kts 319°
2026-05-06 15:59 36.43149 10.41340 14284 ft 330 kts 320°
2026-05-06 15:59 36.45069 10.39772 13954 ft 330 kts 320°
2026-05-06 16:00 36.46990 10.38203 13626 ft 330 kts 320°
2026-05-06 16:00 36.48896 10.36644 13271 ft 330 kts 320°
2026-05-06 16:00 36.50819 10.35070 12880 ft 330 kts 320°
2026-05-06 16:00 36.52732 10.33502 12526 ft 329 kts 321°
2026-05-06 16:01 36.54645 10.31934 12179 ft 328 kts 321°
2026-05-06 16:01 36.56550 10.30375 11842 ft 327 kts 322°
2026-05-06 16:01 36.58421 10.28844 11503 ft 326 kts 322°
2026-05-06 16:01 36.60306 10.27298 11163 ft 324 kts 322°
2026-05-06 16:02 36.62184 10.25756 10827 ft 323 kts 322°
2026-05-06 16:02 36.64060 10.24215 10490 ft 322 kts 322°
2026-05-06 16:02 36.65924 10.22683 10156 ft 320 kts 323°
2026-05-06 16:02 36.67783 10.21152 9828 ft 319 kts 323°
2026-05-06 16:03 36.69632 10.19625 9436 ft 319 kts 324°
2026-05-06 16:03 36.71483 10.18098 9046 ft 318 kts 324°
2026-05-06 16:03 36.73326 10.16579 8684 ft 316 kts 325°
2026-05-06 16:03 36.75154 10.15073 8341 ft 314 kts 325°
2026-05-06 16:04 36.76969 10.13580 7989 ft 311 kts 326°
2026-05-06 16:04 36.78770 10.12097 7640 ft 309 kts 326°
2026-05-06 16:04 36.80556 10.10618 7286 ft 307 kts 325°
2026-05-06 16:04 36.82319 10.09154 6988 ft 302 kts 326°
2026-05-06 16:05 36.84042 10.07789 6839 ft 291 kts 334°
2026-05-06 16:05 36.85958 10.07249 6342 ft 285 kts
2026-05-06 16:05 36.87796 10.08060 5589 ft 282 kts 41°
2026-05-06 16:05 36.88947 10.09976 4848 ft 276 kts 74°
2026-05-06 16:06 36.89010 10.12298 4255 ft 265 kts 107°
2026-05-06 16:06 36.88349 10.14336 4136 ft 240 kts 108°
2026-05-06 16:06 36.88216 10.16308 3835 ft 226 kts 77°
2026-05-06 16:06 36.88880 10.18040 3537 ft 220 kts 56°
2026-05-06 16:07 36.89791 10.19614 3505 ft 222 kts 53°
2026-05-06 16:07 36.90847 10.21038 3511 ft 227 kts 35°
2026-05-06 16:07 36.92357 10.21626 3512 ft 235 kts
2026-05-06 16:07 36.93930 10.21109 3512 ft 241 kts 330°
2026-05-06 16:08 36.95131 10.19640 3502 ft 242 kts 307°
2026-05-06 16:08 36.96064 10.17901 3506 ft 241 kts 304°
2026-05-06 16:08 36.96952 10.16121 3501 ft 241 kts 303°
2026-05-06 16:08 36.97832 10.14356 3214 ft 238 kts 304°
2026-05-06 16:09 36.98700 10.12585 2881 ft 238 kts 303°
2026-05-06 16:09 36.99303 10.10676 2666 ft 235 kts 283°
2026-05-06 16:09 36.99249 10.08686 2533 ft 231 kts 251°
2026-05-06 16:09 36.98355 10.07061 2383 ft 227 kts 217°
2026-05-06 16:10 36.96994 10.06068 2044 ft 227 kts 204°
2026-05-06 16:10 36.95582 10.05321 1995 ft 215 kts 200°
2026-05-06 16:10 36.94220 10.04635 2004 ft 208 kts 197°
2026-05-06 16:10 36.92809 10.04428 2005 ft 205 kts 167°
2026-05-06 16:11 36.91523 10.05090 2012 ft 199 kts 137°
2026-05-06 16:11 36.90681 10.06416 2024 ft 192 kts 112°
2026-05-06 16:11 36.90174 10.07829 2003 ft 167 kts 111°
2026-05-06 16:11 36.89724 10.09083 2003 ft 153 kts 111°
2026-05-06 16:12 36.89295 10.10282 2002 ft 150 kts 110°
2026-05-06 16:12 36.88876 10.11445 2027 ft 146 kts 112°
2026-05-06 16:12 36.88464 10.12588 1805 ft 141 kts 109°
2026-05-06 16:12 36.88065 10.13689 1607 ft 138 kts 109°
2026-05-06 16:13 36.87666 10.14798 1397 ft 141 kts 110°
2026-05-06 16:13 36.87263 10.15918 1215 ft 142 kts 109°
2026-05-06 16:13 36.86924 10.17088 984 ft 141 kts 104°
2026-05-06 16:13 36.86603 10.18234 724 ft 139 kts 105°
2026-05-06 16:14 36.86209 10.19352 575 ft 142 kts 111°
2026-05-06 16:14 36.85831 10.20492 306 ft 137 kts 105°
2026-05-06 16:14 36.85483 10.21616 119 ft 139 kts 110°
2026-05-06 16:14 36.85140 10.22652 28 ft 112 kts 114°
2026-05-06 16:15 36.84904 10.23369 21 ft 70 kts 112°
2026-05-06 16:15 36.84743 10.23857 20 ft 47 kts 114°
2026-05-06 16:15 36.84620 10.24099 18 ft 11 kts 170°
2026-05-06 16:15 36.84593 10.24076 19 ft 3 kts 233°
2026-05-06 16:16 36.84583 10.24064 19 ft 1 kts 220°
2026-05-06 16:16 36.84580 10.24061 19 ft 2 kts 220°
2026-05-06 16:16 36.84547 10.24034 19 ft 10 kts 203°
2026-05-06 16:16 36.84484 10.23968 19 ft 15 kts 255°
2026-05-06 16:17 36.84517 10.23835 21 ft 18 kts 292°
2026-05-06 16:17 36.84567 10.23681 22 ft 20 kts 291°
2026-05-06 16:17 36.84624 10.23514 21 ft 22 kts 293°
2026-05-06 16:17 36.84682 10.23332 22 ft 24 kts 291°
2026-05-06 16:18 36.84748 10.23137 23 ft 25 kts 294°
2026-05-06 16:18 36.84817 10.22928 25 ft 27 kts 292°
2026-05-06 16:18 36.84889 10.22713 26 ft 26 kts 292°
2026-05-06 16:18 36.84948 10.22535 26 ft 21 kts 291°
2026-05-06 16:19 36.84949 10.22385 26 ft 12 kts 213°
2026-05-06 16:19 36.84872 10.22316 24 ft 17 kts 261°
2026-05-06 16:19 36.84875 10.22182 24 ft 16 kts 238°
2026-05-06 16:19 36.84761 10.22121 23 ft 20 kts 193°
2026-05-06 16:20 36.84666 10.22070 23 ft 13 kts 246°
2026-05-06 16:20 36.84640 10.21995 23 ft 0 kts 246°